Flag for U.S.A. Weather past 2 weeks in Talkeetna, Alaska, U.S.A.

Now
25 °F

Clear.


Feels Like: 25 °F
Forecast: 24 / 51 °F
Wind: No wind

Location: Talkeetna Weather Reporting Station

Current Time: Oct 2, 2014 at 6:38:27 AM

Latest Report: Oct 2, 2014 at 5:53 AM


Visibility: 10 mi

Pressure: 30.11 "Hg

Humidity: 85%

Dew point: 21 °F

Location of TalkeetnaLocation

Historic Weather in Talkeetna — Graph

°F

Talkeetna temperature yesterday

Maximum temperature yesterday: 50 °F (at 4:53 PM)
Minimum temperature yesterday: 22 °F (at 8:53 AM)
Average temperature yesterday: 35 °F

Past Weeks' High & Low Weather Summary

 TemperatureHumidityPressure
High63 °F (Sep 27, 4:53 PM)100% (Sep 20, 2:53 AM)30.33 "Hg (Sep 20, 2:53 AM)
Low21 °F (Sep 30, 8:53 AM)22% (Sep 27, 5:53 PM)29.00 "Hg (Sep 18, 3:53 PM)
Average43 °F68%29.71 "Hg
* Reported Sep 17 4:53 AM — Oct 2 4:53 AM, Talkeetna, Weather by CustomWeather, © 2014

Note: Actual official high and low records may vary slightly from our data, if they occured in-between our weather recording intervals... More about our weather records

Advertising

Talkeetna weather history for previous 24 hours

 ConditionsComfort  
Time TempWeatherWind HumidityBarometerVisibility
4:53 AM
Oct 2
25 °FClear.No wind85%30.13 "Hg10 mi
3:53 AM27 °FClear.No wind78%30.15 "Hg10 mi
2:53 AM26 °FClear.No wind81%30.16 "Hg10 mi
1:53 AM28 °FClear.No wind75%30.18 "Hg10 mi
12:53 AM28 °FClear.No wind75%30.20 "Hg10 mi
11:53 PM
Oct 1
29 °FClear.No wind75%30.21 "Hg10 mi
10:53 PM31 °FClear.No wind67%30.20 "Hg10 mi
9:53 PM31 °FClear.No wind67%30.21 "Hg10 mi
8:53 PM34 °FClear.No wind61%30.21 "Hg10 mi
7:53 PM40 °FSunny.No wind47%30.21 "Hg10 mi
6:53 PM47 °FSunny.3 mph36%30.22 "Hg10 mi
5:53 PM49 °FSunny.No wind32%30.22 "Hg10 mi
4:53 PM50 °FSunny.3 mph29%30.23 "Hg10 mi
3:53 PM48 °FSunny.3 mph32%30.24 "Hg10 mi
2:53 PM47 °FSunny.3 mph34%30.26 "Hg10 mi
1:53 PM47 °FSunny.No wind33%30.27 "Hg10 mi
12:53 PM44 °FSunny.No wind38%30.29 "Hg10 mi
11:53 AM41 °FSunny.3 mph47%30.30 "Hg10 mi
10:53 AM37 °FSunny.No wind52%30.30 "Hg10 mi
9:53 AM30 °FSunny.No wind69%30.30 "Hg10 mi
8:53 AM22 °FClear.No wind89%30.31 "Hg10 mi
7:53 AM23 °FClear.3 mph85%30.31 "Hg10 mi
6:53 AM24 °FClear.No wind81%30.32 "Hg10 mi
Weather by CustomWeather, © 2014

See weather overviewHow to use our weather pages